FENGYUN 1C DEB, 30697

Orbit data source: Space-Track

FENGYUN 1C DEB, 30697 is space debris in SSO originally from a launch on Mon, 10 May 1999 UTC launched from the Taiyaun Space Center, China (TSC). Fengyun 1C debris stems from the Chinese weather satellite Fengyun-1C, which was intentionally destroyed by a Chinese anti-satellite missile in 2007. This event dramatically increased the amount of space debris, with thousands of trackable fragments posing hazards to satellites and human spaceflight. The Fengyun 1C debris cloud has become a focal point in discussions about space sustainability and the need for international regulations to prevent the creation of new debris.

Loading next visibility...
Identifier
30697, 1999-025ARF
Orbit
SSO
Country
Flag of CNCN / PRC
Related business
Manufacturer
Unknown
Mission
Spacecraft
Bus & Motor
Unknown
Mass
Unknown
Launch date (UTC)
1999-05-10 (26 years ago)
Launch vehicle
Unknown
Launch site
Taiyaun Space Center, China (TSC)
Object type
Payload
Rocket body
Debris
Shape & HBR
Unknown shape, 0.1 m
Radar Cross Section
Small (<0.1 m²)

Expand to show TLE details & history
Last TLE update: 9 hours ago

TLE from 9 hours ago
0 FENGYUN 1C DEB
1 30697U 99025ARF 25289.41804041  .00002574  00000-0  13552-2 0  9994
2 30697  98.9115 346.5125 0084989 348.3203  26.7489 14.13056941954511
Epoch: 2025-10-16T10:01Z
TLE epoch observation values (Epoch: 2025-10-16T10:01:58.691Z)
Latitude
15.29737°
Longitude
168.39492°
Altitude
796.381 km
Speed
7.485 km/s
True Right ascension
22h 56m 16s
True Declination
15° 12' 38"
Sunlit
Object was in full shadow at epoch
Visualization orbit readout
Latitude
Unknown
Longitude
Unknown
Altitude
Unknown
Speed
Unknown
Apparent Right ascension
Unknown
Apparent Declination
Unknown
Sunlit
N/A
Visualization observer readout
Local Sidereal Time
14:03:29
Azimuth
Unknown
Elevation
Unknown
Doppler factor
Unknown
Orbital elements
Apogee altitude
907.505 km
Perigee altitude
784.709 km
Semi-major axis
7,224.244 km
Eccentricity
0.0085
Inclination
98.9115°
RAAN
346.5125°
Arg. of periapsis
348.3203°
True anomaly
27.19143°
Mean anomaly
26.7489°
Eccentric anomaly
26.96974°
Mean motion
3.53472 °/min
Orbital period
101.85 mins
BSTAR
0.0013552
Loading maneuver chart data...
Computing Atmospheric mass density...

Documentation

Showing up to 5 results
|